Location: Roc des P�zouls
(43.9667°N, 3.5500°E)
Time: 06:20:52
(UTC+00:00)

SL-4 R/B - Pass Details

Date: 14 November 2019
Orbit: 428 x 667 km, 51.6° (Epoch: 06 December)

Event Time Altitude Azimuth Distance (km) Brightness Sun altitude
Exits shadow 04:17:17 32° 3° (N) 1,134 3.5 -25.5°
Drops below altitude 10° 04:21:33 10° 64° (ENE) 2,090 5.8 -24.7°
Sets 04:24:07 0° 74° (ENE) 2,991 7.0 -24.2°
